Вернуться в каталог

XINGWANG JISHU SW 10-04

АктивенНаукаVLEO
NORAD 69323·PAYLOAD·🇨🇳 China
Это название спутника еще не подтверждено официальными источниками.

Запущен May 30, 2026 с Xichang Satellite Launch Center

Loading…

Ближайшие Пролёты (ближайшие 24 часа)

TLE

СвежийSource: Space-Track

Эпоха: Sep 14, 2026, 13:10 UTC

1 69323U 26120D   26257.54923324  .00003601  00000-0  18284-3 0  9994
2 69323  55.0086 350.4815 0011166 183.0460 177.0493 15.19374428 16374

Отслеживайте XINGWANG JISHU SW 10-04 в реальном времени с AllMySat

Download on the App Store